Station KLIH1 - 1615680 - Kahului, Kahului Harbor, HI Image indicating link to RSS feed of recent meteorological observations for station KLIH1


Conditions at KLIH1 as of
(8:48 am HAST)
1848 GMT on 05/24/2024:
     

Click on the graph icon in the table below to see a time series plot of the last five days of that observation.

5-day plot - Wind Direction Wind Direction (WDIR):ENE ( 70 deg true )
5-day plot - Wind Speed Wind Speed (WSPD): 13.0 kts
5-day plot - Wind Gust Wind Gust (GST): 19.0 kts
5-day plot - Atmospheric Pressure Atmospheric Pressure (PRES):30.10 in
5-day plot - Water Temperature Water Temperature (WTMP): 77.7 °F
5-day plot - Wind Speed at 10 Meters Wind Speed at 10 meters (WSPD10M): 13.6 kts
5-day plot - Wind Speed at 20 Meters Wind Speed at 20 meters (WSPD20M): 15.5 kts
5-day plot -  Wind Speed, Wind Gust and Atmospheric Pressure Combined plot of Wind Speed, Gust, and Air Pressure
NOS Water Level Observation Network Water Level
Previous observations
TIME
(HAST)
5-day plot - Wind Direction
WDIR
 
5-day plot - Wind Speed
WSPD
kts
5-day plot - Wind Gust
GST
kts
5-day plot - Wave Height
WVHT
ft
5-day plot - Dominant Wave Period
DPD
sec
5-day plot - Average Wave Period
APD
sec
5-day plot - Mean Wave Direction
MWD
 
5-day plot - Atmospheric Pressure
PRES
in
5-day plot - Pressure Tendency
PTDY
in
5-day plot - Air Temperature
ATMP
°F
5-day plot - Water Temperature
WTMP
°F
5-day plot - Dew Point
DEWP
°F
5-day plot - Salinity
SAL
psu
5-day plot - Visibility
VIS
nmi
5-day plot - Tide (above MLLW)
TIDE
ft
2024-05-24 08:42 amENE 12.0 15.9----30.11- 75.9 77.9----
2024-05-24 08:36 amENE 11.1 15.9----30.11- 75.6 77.7----
2024-05-24 08:30 amENE 13.0 17.1----30.11- 75.7 77.7----
2024-05-24 08:24 amENE 13.0 15.9----30.11- 75.9 77.9----
2024-05-24 08:18 am E 11.1 18.1----30.11- 76.1 77.7----
2024-05-24 08:12 am E 12.0 15.9----30.11- 76.1 77.7----
2024-05-24 08:06 am E 11.1 17.1----30.10- 75.9 77.7----
2024-05-24 08:00 am E 8.0 15.0----30.10+0.04 75.7 77.7----
2024-05-24 07:54 am E 11.1 17.1----30.10- 75.2 77.7----
2024-05-24 07:48 amENE 13.0 15.9----30.10- 75.2 77.7----
2024-05-24 07:42 am E 15.0 18.1----30.10- 75.4 77.7----
2024-05-24 07:36 am E 8.0 15.0----30.10- 75.0 77.7----
2024-05-24 07:30 am E 12.0 17.1----30.10- 74.8 77.7----
2024-05-24 07:24 am E 11.1 15.0----30.10- 75.2 77.5----
2024-05-24 07:18 am E 13.0 17.1----30.09-- 77.7----
2024-05-24 07:12 am E 8.9 19.0----30.09- 74.3 78.1----
2024-05-24 07:06 amENE 17.1 21.0----30.08- 74.3 78.1----
2024-05-24 07:00 am NE 12.0 14.0----30.09+0.05 74.5 78.1----
2024-05-24 06:54 amENE 8.0 11.1----30.09- 74.7 78.1----
2024-05-24 06:48 amENE 6.0 8.0----30.09-- 78.1----
2024-05-24 06:42 am E 8.0 12.0----30.09- 75.0 78.1----
2024-05-24 06:36 amESE 2.9 8.0----30.09- 74.5 78.1----
2024-05-24 06:30 amESE 5.1 7.0----30.09- 73.8 78.1----
2024-05-24 06:24 am E 6.0 9.9----30.09- 73.6 78.1----
2024-05-24 06:18 amESE 6.0 9.9----30.08- 73.6 77.9----
2024-05-24 06:12 am E 8.9 20.0----30.08- 73.9 77.9----
2024-05-24 06:06 amENE 13.0 19.0----30.08- 73.9 78.1----
2024-05-24 06:00 amENE 14.0 19.0----30.08+0.01 73.8 78.1----
2024-05-24 05:54 amENE 14.0 21.0----30.08- 73.8 78.1----
2024-05-24 05:48 am NE 15.0 19.0----30.08- 73.8 78.1----
2024-05-24 05:42 am NE 13.0 15.9----30.08- 73.8 78.3----
2024-05-24 05:36 amENE 9.9 14.0----30.08- 73.6 78.1----
2024-05-24 05:30 am E 11.1 15.0----30.08- 73.9 78.1----
2024-05-24 05:24 am E 11.1 15.9----30.08- 73.6 78.1----
2024-05-24 05:18 am E 9.9 14.0----30.07- 73.4 78.3----
2024-05-24 05:12 am E 9.9 22.0----30.06- 73.0 78.3----
2024-05-24 05:06 amENE 17.1 22.0----30.06- 73.8 78.3----
2024-05-24 05:00 am NE 15.0 19.0----30.06-0.01 73.9 78.3----
2024-05-24 04:54 amENE 11.1 14.0----30.06- 73.9 78.3----
2024-05-24 04:48 am E 8.0 11.1----30.07- 74.1 78.3----
2024-05-24 04:42 am E 11.1 15.0----30.07- 73.9 78.3----
2024-05-24 04:36 am E 9.9 17.1----30.06- 73.8 78.4----
2024-05-24 04:30 amESE 7.0 9.9----30.06- 73.0 78.4----
2024-05-24 04:24 amENE 11.1 14.0----30.06- 73.8 78.4----
2024-05-24 04:18 amENE 12.0 17.1----30.06- 73.9 78.4----
2024-05-24 04:12 am E 7.0 12.0----30.05- 73.9 78.4----
2024-05-24 04:06 am E 7.0 17.1----30.05- 72.7 78.3----
2024-05-24 04:00 amENE 17.1 28.9----30.04-0.06 73.4 78.4----
2024-05-24 03:54 am NE 14.0 18.1----30.05- 74.1 78.4----
2024-05-24 03:48 am NE 13.0 15.9----30.05- 73.9 78.4----
2024-05-24 03:42 amENE 12.0 18.1----30.06- 74.1 78.4----
2024-05-24 03:36 amENE 9.9 15.0----30.06- 73.8 78.4----
2024-05-24 03:30 amENE 12.0 17.1----30.06- 73.8 78.3----
2024-05-24 03:24 amENE 14.0 17.1----30.06- 73.8 78.4----
2024-05-24 03:18 amENE 14.0 18.1----30.06- 73.8 78.4----
2024-05-24 03:12 amENE 13.0 19.0----30.06- 73.8 78.4----
2024-05-24 03:06 amENE 14.0 20.0----30.06- 73.8 78.4----
2024-05-24 03:00 amENE 15.9 20.0----30.06-0.05 73.8 78.4----
2024-05-24 02:54 amENE 15.0 18.1----30.07- 73.9 78.3----
2024-05-24 02:48 amENE 15.0 18.1----30.07- 73.8 78.3----
2024-05-24 02:42 amENE 14.0 19.0----30.07- 73.9 78.4----
2024-05-24 02:36 amENE 15.0 19.0----30.07- 74.1 78.3----
2024-05-24 02:30 amENE 12.0 17.1----30.08- 74.1 78.3----
2024-05-24 02:24 amENE 13.0 15.9----30.08- 73.9 78.3----
2024-05-24 02:18 am E 8.9 13.0----30.08- 74.3 78.4----
2024-05-24 02:12 am E 12.0 15.9----30.08- 73.8 78.4----
2024-05-24 02:06 am E 15.0 19.0----30.08- 73.9 78.4----
2024-05-24 02:00 am E 13.0 17.1----30.08-0.05 74.3 78.4----
2024-05-24 01:54 am E 13.0 19.0----30.08- 74.5 78.4----
2024-05-24 01:48 am E 13.0 22.0----30.08- 74.7 78.4----
2024-05-24 01:42 amENE 18.1 22.0----30.08- 74.5 78.4----
2024-05-24 01:36 amENE 15.0 20.0----30.09- 74.3 78.4----
2024-05-24 01:30 am NE 14.0 17.1----30.09- 74.5 78.4----
2024-05-24 01:24 am NE 12.0 15.0----30.09- 74.7 78.4----
2024-05-24 01:18 amENE 12.0 15.0----30.10- 74.7 78.4----
2024-05-24 01:12 amENE 9.9 14.0----30.10- 74.7 78.4----
2024-05-24 01:06 am NE 12.0 14.0----30.10- 74.5 78.4----
2024-05-24 01:00 amENE 12.0 17.1----30.10-0.02 74.5 78.4----
2024-05-24 12:54 amENE 14.0 18.1----30.10- 74.8 78.4----
2024-05-24 12:48 am E 11.1 15.0----30.10- 75.2 78.4----
2024-05-24 12:42 am E 12.0 22.9----30.10- 75.0 78.4----
2024-05-24 12:36 am NE 15.9 21.0----30.09- 74.8 78.3----
2024-05-24 12:30 am NE 14.0 15.9----30.10- 74.8 78.3----
2024-05-24 12:24 am NE 11.1 17.1----30.11- 74.8 78.3----
2024-05-24 12:18 amENE 15.0 18.1----30.11- 74.7 78.3----
2024-05-24 12:12 amENE 13.0 17.1----30.11- 74.7 78.3----
2024-05-24 12:06 amENE 13.0 18.1----30.12- 74.8 78.3----
2024-05-24 12:00 amENE 13.0 19.0----30.12+0.01 74.8 78.4----
2024-05-23 11:54 pmENE 12.0 19.0----30.12- 74.8 78.4----
2024-05-23 11:48 pmENE 13.0 18.1----30.12- 75.0 78.4----
2024-05-23 11:42 pmENE 12.0 19.0----30.12- 75.2 78.4----
2024-05-23 11:36 pm NE 15.0 19.0----30.12- 75.0 78.4----
2024-05-23 11:30 pm NE 14.0 20.0----30.12- 75.0 78.4----
2024-05-23 11:24 pm NE 14.0 20.0----30.12- 75.0 78.4----
2024-05-23 11:18 pmENE 13.0 21.0----30.13-- 78.4----
2024-05-23 11:12 pmENE 15.0 19.0----30.13- 75.0 78.4----
2024-05-23 11:06 pm E 14.0 19.0----30.13- 75.0 78.4----
2024-05-23 11:00 pm E 14.0 17.1----30.13+0.04 75.0 78.4----
2024-05-23 10:54 pm E 11.1 15.9----30.13- 75.0 78.4----
2024-05-23 10:48 pm E 14.0 18.1----30.13- 75.0 78.4----
2024-05-23 10:42 pm E 11.1 15.9----30.13- 75.0 78.4----
2024-05-23 10:36 pmENE 8.9 15.0----30.13- 75.0 78.4----
2024-05-23 10:30 pm E 15.9 19.0----30.12- 75.0 78.4----
2024-05-23 10:24 pm E 15.9 22.9----30.11- 75.0 78.6----
2024-05-23 10:18 pmENE 15.9 25.1----30.11-- 78.6----
2024-05-23 10:12 pmENE 20.0 26.0----30.11- 75.0 78.6----
2024-05-23 10:06 pmENE 19.0 22.9----30.11- 75.0 78.6----
2024-05-23 10:00 pmENE 19.0 22.0----30.12+0.07 75.0 78.6----
2024-05-23 09:54 pmENE 15.9 19.0----30.12- 75.0 78.4----
2024-05-23 09:48 pm E 14.0 19.0----30.12-- 78.4----
2024-05-23 09:42 pm E 15.0 21.0----30.11- 75.0 78.4----
2024-05-23 09:36 pm E 14.0 20.0----30.11- 75.0 78.6----
2024-05-23 09:30 pmENE 18.1 22.9----30.11- 75.0 78.6----
2024-05-23 09:24 pmENE 15.9 20.0----30.11- 74.8 78.6----
2024-05-23 09:18 pmENE 12.0 21.0----30.11- 75.2 78.6----
2024-05-23 09:12 pmENE 15.0 22.0----30.10- 75.0 78.4----
2024-05-23 09:06 pmENE 15.0 20.0----30.10- 75.0 78.4----
2024-05-23 09:00 pmENE 17.1 22.0----30.10+0.08 75.2 78.6----
2024-05-23 08:54 pmENE 17.1 22.9----30.10- 75.0 78.6----
2024-05-23 08:48 pmENE 17.1 22.0----30.10- 75.0 78.6----
2024-05-23 08:42 pmENE 17.1 22.0----30.10- 75.0 78.6----
2024-05-23 08:36 pmENE 18.1 22.0----30.10- 75.0 78.6----
2024-05-23 08:30 pmENE 17.1 24.1----30.10- 75.0 78.6----
2024-05-23 08:24 pmENE 17.1 21.0----30.09- 74.8 78.6----
2024-05-23 08:18 pmENE 18.1 22.9----30.09- 74.8 78.6----
2024-05-23 08:12 pmENE 17.1 22.0----30.09- 74.8 78.6----
2024-05-23 08:06 pmENE 19.0 24.1----30.08- 75.0 78.6----
2024-05-23 08:00 pmENE 18.1 22.9----30.08+0.07- 78.6----
2024-05-23 07:54 pmENE 19.0 25.1----30.08-- 78.6----
2024-05-23 07:48 pmENE 17.1 24.1----30.08- 74.7 78.6----
2024-05-23 07:42 pm E 18.1 25.1----30.08- 74.7 78.8----
2024-05-23 07:36 pm E 18.1 22.9----30.08- 74.8 78.8----
2024-05-23 07:30 pm E 20.0 26.0----30.07- 74.7 78.8----
2024-05-23 07:24 pm E 19.0 25.1----30.06- 74.5 78.8----
2024-05-23 07:18 pm E 20.0 27.0----30.06- 74.3 78.8----
2024-05-23 07:12 pm E 22.0 28.0----30.06- 74.1 78.8----
2024-05-23 07:06 pm E 22.0 25.1----30.05- 74.5 78.8----
2024-05-23 07:00 pm E 21.0 27.0----30.05+0.03 74.7 78.8----
2024-05-23 06:54 pm E 18.1 25.1----30.05- 75.0 78.8----
2024-05-23 06:48 pm E 19.0 24.1----30.04-- 78.8----
2024-05-23 06:42 pm E 15.9 22.9----30.04-- 78.8----
2024-05-23 06:36 pm E 17.1 25.1----30.04-- 78.6----
2024-05-23 06:30 pm E 21.0 25.1----30.03- 74.7 78.8----
2024-05-23 06:24 pm E 20.0 24.1----30.03- 74.8 78.8----
2024-05-23 06:18 pm E 18.1 25.1----30.03- 75.2 78.8----
2024-05-23 06:12 pm E 18.1 24.1----30.03- 75.4 78.8----
2024-05-23 06:06 pm E 19.0 26.0----30.03- 75.4 78.8----
2024-05-23 06:00 pm E 17.1 22.9----30.03+0.00 75.9 78.8----
2024-05-23 05:54 pm E 19.0 26.0----30.02- 75.9 78.8----
2024-05-23 05:48 pm E 20.0 28.9----30.02- 76.3 78.6----
2024-05-23 05:42 pm E 19.0 25.1----30.02- 76.5 78.6----
2024-05-23 05:36 pm E 15.0 22.0----30.01- 76.6 78.6----
2024-05-23 05:30 pm E 18.1 27.0----30.01- 76.3 78.6----
2024-05-23 05:24 pm E 17.1 27.0----30.01- 76.5 78.6----
2024-05-23 05:18 pm E 22.0 26.0----30.01- 76.3 78.6----
2024-05-23 05:12 pm E 21.0 26.0----30.01- 76.1 78.6----
2024-05-23 05:06 pm E 22.0 28.0----30.01- 76.3 78.8----
2024-05-23 05:00 pmENE 22.9 29.9----30.01-0.03 75.7 78.6----
2024-05-23 04:54 pmENE 21.0 27.0----30.01- 75.7 78.8----
2024-05-23 04:48 pmENE 22.0 27.0----30.01- 75.6 78.8----
2024-05-23 04:42 pmENE 22.0 26.0----30.01- 75.4 78.8----
2024-05-23 04:36 pm E 18.1 26.0----30.01- 75.4 78.8----
2024-05-23 04:30 pmENE 21.0 27.0----30.02- 74.8 78.8----
2024-05-23 04:24 pmENE 21.0 26.0----30.02- 75.2 78.8----
2024-05-23 04:18 pmENE 19.0 26.0----30.02- 75.2 78.8----
2024-05-23 04:12 pmENE 19.0 24.1----30.03- 76.1 78.8----
2024-05-23 04:06 pmENE 17.1 25.1----30.03- 77.0 78.8----
2024-05-23 04:00 pmENE 15.0 22.9----30.02-0.03 76.6 78.8----
2024-05-23 03:54 pmENE 21.0 25.1----30.02- 77.0 78.6----
2024-05-23 03:48 pmENE 20.0 27.0----30.02-- 78.6----
2024-05-23 03:42 pmENE 15.9 22.9----30.02- 76.5 78.6----
2024-05-23 03:36 pmENE 18.1 26.0----30.03- 75.9 78.6----
2024-05-23 03:30 pmENE 15.0 28.9----30.03- 76.3 78.8----
2024-05-23 03:24 pmENE 21.0 26.0----30.02- 75.9 78.8----
2024-05-23 03:18 pmENE 17.1 26.0----30.03-- 78.8----
2024-05-23 03:12 pmENE 19.0 24.1----30.02- 76.6 78.8----
2024-05-23 03:06 pmENE 21.0 27.0----30.03- 76.1 78.8----
2024-05-23 03:00 pm NE 15.0 29.9----30.03-0.04 75.9 78.8----
2024-05-23 02:54 pm NE 15.0 24.1----30.03- 75.7 78.6----
2024-05-23 02:48 pmENE 21.0 26.0----30.03- 75.9 78.6----
2024-05-23 02:42 pmENE 15.9 26.0----30.03- 76.1 78.6----
2024-05-23 02:36 pmENE 18.1 24.1----30.03- 75.9 78.8----
2024-05-23 02:30 pmENE 19.0 22.9----30.03- 76.5 78.8----
2024-05-23 02:24 pmENE 17.1 25.1----30.03- 76.5 78.6----
2024-05-23 02:18 pmENE 20.0 25.1----30.03- 77.0 78.4----
2024-05-23 02:12 pm E 21.0 28.0----30.04- 77.0 78.4----
2024-05-23 02:06 pm E 20.0 25.1----30.04- 77.4 78.6----
2024-05-23 02:00 pmENE 19.0 25.1----30.04-0.05 77.2 78.6----
2024-05-23 01:54 pmENE 18.1 26.0----30.04- 77.4 78.6----
2024-05-23 01:48 pm E 18.1 22.9----30.04- 77.9 78.8----
2024-05-23 01:42 pmENE 15.0 22.9----30.04- 77.5 78.8----
2024-05-23 01:36 pmENE 20.0 25.1----30.04- 77.7 78.6----
2024-05-23 01:30 pmENE 20.0 25.1----30.04- 77.4 78.6----
2024-05-23 01:24 pmENE 22.0 25.1----30.05- 77.4 78.8----
2024-05-23 01:18 pmENE 18.1 26.0----30.05- 78.1 79.0----
2024-05-23 01:12 pmENE 15.9 22.0----30.05- 78.3 78.8----
2024-05-23 01:06 pmENE 19.0 22.9----30.05- 79.0 78.8----
2024-05-23 01:00 pmENE 15.9 22.9----30.05-0.05 78.8 78.8----
2024-05-23 12:54 pmENE 18.1 22.0----30.05- 79.9 78.8----
2024-05-23 12:48 pmENE 19.0 22.0----30.06- 80.4 78.8----
2024-05-23 12:42 pm E 15.0 19.0----30.05- 81.7 78.8----
2024-05-23 12:36 pmENE 17.1 22.9----30.06- 79.5 78.8----
2024-05-23 12:30 pmENE 15.9 21.0----30.06- 79.9 78.8----
2024-05-23 12:24 pmENE 20.0 24.1----30.06- 79.0 78.8----
2024-05-23 12:18 pm E 17.1 25.1----30.06- 79.9 79.0----
2024-05-23 12:12 pmENE 19.0 26.0----30.06- 79.2 78.8----
2024-05-23 12:06 pm E 18.1 27.0----30.07- 79.5 78.8----
2024-05-23 12:00 pm E 15.9 22.9----30.07-0.02 79.3 78.8----
2024-05-23 11:54 amENE 20.0 24.1----30.08- 78.8 78.8----
2024-05-23 11:48 amENE 17.1 22.9----30.08- 79.0 78.8----
2024-05-23 11:42 amENE 17.1 24.1----30.08- 78.6 78.8----
2024-05-23 11:36 amENE 18.1 24.1----30.08- 78.8 78.8----
2024-05-23 11:30 amENE 20.0 22.9----30.09- 79.0 78.6----
2024-05-23 11:24 amENE 17.1 22.0----30.09- 79.0 78.6----
2024-05-23 11:18 amENE 17.1 22.0----30.08- 78.8 78.6----
2024-05-23 11:12 amENE 20.0 26.0----30.09- 78.8 78.4----
2024-05-23 11:06 amENE 15.9 22.9----30.09- 79.2 78.4----
2024-05-23 11:00 amENE 20.0 22.9----30.09+0.00 78.8 78.4----
2024-05-23 10:54 amENE 20.0 22.9----30.09- 78.4 78.3----
2024-05-23 10:48 amENE 15.0 22.9----30.09- 78.6 78.3----
2024-05-23 10:42 amENE 19.0 22.0----30.09- 78.4 78.3----
2024-05-23 10:36 amENE 17.1 20.0----30.09- 79.2 78.3----
2024-05-23 10:30 amENE 14.0 18.1----30.10- 79.2 78.4----
2024-05-23 10:24 am NE 12.0 17.1----30.10- 79.7 78.4----
2024-05-23 10:18 amENE 11.1 15.9----30.10- 79.9 78.4----
2024-05-23 10:12 amENE 13.0 20.0----30.10- 78.8 78.4----
2024-05-23 10:06 amENE 13.0 22.0----30.10- 78.1 78.3----
2024-05-23 10:00 amENE 14.0 21.0----30.10+0.03 78.3 78.3----
2024-05-23 09:54 amENE 15.9 21.0----30.10- 77.4 78.3----
2024-05-23 09:48 amENE 14.0 20.0----30.10- 78.1 78.3----
2024-05-23 09:42 amENE 15.0 21.0----30.10- 78.4 78.3----
2024-05-23 09:36 amENE 17.1 22.0----30.10- 78.3 78.3----
2024-05-23 09:30 amENE 15.0 21.0----30.09- 78.4 78.4----
2024-05-23 09:24 amENE 15.0 19.0----30.09- 78.3 78.3----
2024-05-23 09:18 amENE 15.0 19.0----30.09- 78.1 78.3----
2024-05-23 09:12 amENE 17.1 19.0----30.09- 77.9 78.4----
2024-05-23 09:06 am E 13.0 15.9----30.09- 78.3 78.3----
2024-05-23 09:00 amENE 2.9 8.0----30.09+0.04 78.4 78.3----
2024-05-23 08:54 amNNE 2.9 2.9----30.10- 77.7 78.3----